[[{"header":{"parameterUnit":"m.s-1","parameterCategory":1,"la1":30.2991,"la2":30.254,"lo1":-89.0895,"lo2":-89.0444,"dy":0.0017,"dx":0.0017,"nx":28,"ny":28,"refTime":"2025-03-17T03:00:00:Z","depth":0,"parameterNumber":2,"parameterNumberName":"U-component_of_WINDS"},"data":[0,0,0,0,0,0,0,0,0,0,0,0,0,0,0,0,0,0,0,0,0,0,0,0,0,0,0,0,0,0,0,0,0,0,0,0,0,0,0,0,0,0,0,0,0,0,0,0,0,0,0,0,0,0,0,0,0,0,-1.6572,-1.6572,0,-1.6583,-1.6583,-1.6583,-1.6578,-1.6577,-1.6577,-1.6577,-1.659,-1.659,-1.6591,0,0,0,0,0,0,0,0,0,0,0,0,0,-1.6546,-1.6547,-1.6571,-1.6572,-1.6572,-1.6583,-1.6583,-1.6583,-1.6578,-1.6577,-1.6577,-1.6577,-1.6589,-1.659,-1.6591,0,0,0,0,0,0,0,0,0,0,0,0,0,-1.6557,-1.6547,-1.6571,-1.657,-1.657,-1.6583,-1.6583,-1.6583,-1.6578,-1.6577,-1.6577,-1.6576,-1.6589,-1.659,-1.6591,-1.6606,0,0,-1.6594,-1.6594,0,0,0,0,0,0,0,0,-1.6557,-1.6558,-1.657,-1.657,-1.657,-1.6578,-1.6579,-1.6591,-1.6578,-1.6575,-1.6577,-1.6576,-1.6586,-1.6587,-1.6591,-1.6606,-1.6607,-1.6594,-1.6594,-1.6595,-1.6595,0,0,0,0,0,0,0,-1.6556,-1.6558,-1.6576,-1.657,-1.6571,-1.657,-1.6571,-1.6581,-1.6583,-1.6575,-1.6575,-1.6576,-1.6586,-1.659,-1.6591,-1.6607,-1.6594,-1.6595,-1.6595,-1.6596,-1.6636,-1.6637,0,0,0,0,0,0,-1.6555,-1.6557,-1.6576,-1.6576,-1.6562,-1.6571,-1.6572,-1.6576,-1.6583,-1.6583,-1.6576,-1.6576,-1.6588,-1.659,-1.6591,-1.6609,-1.6595,-1.6596,-1.6596,-1.6636,-1.6636,-1.6637,0,0,0,0,0,0,-1.6555,-1.6557,-1.6575,-1.6567,-1.6569,-1.6571,-1.6577,-1.6577,-1.658,-1.6584,-1.6584,-1.658,-1.6588,-1.659,-1.6602,-1.6609,-1.6596,-1.6597,-1.6635,-1.6636,-1.6637,-1.6645,0,0,0,0,0,0,-1.6554,-1.6557,-1.6562,-1.6567,-1.6569,-1.6586,-1.6577,-1.6577,-1.6582,-1.6581,-1.6587,-1.6588,-1.6588,-1.6601,-1.6603,-1.6611,-1.6598,-1.6634,-1.6635,-1.6636,-1.6644,-1.6646,-1.6647,0,0,0,0,0,-1.6553,-1.6564,-1.6562,-1.6564,-1.6576,-1.6586,-1.6587,-1.6587,-1.6582,-1.6588,-1.659,-1.6587,-1.6609,-1.6602,-1.6605,-1.6612,-1.6634,-1.6635,-1.6636,-1.6643,-1.6645,-1.6647,0,0,0,0,0,0,-1.656,-1.6564,-1.6563,-1.6575,-1.658,-1.6585,-1.6592,-1.659,-1.6596,-1.6595,-1.6595,-1.6597,-1.6609,-1.6612,-1.6605,-1.6628,-1.6621,-1.6622,-1.6625,-1.6627,-1.6629,-1.6628,-1.6598,0,0,0,0,0,-1.6563,-1.657,-1.6574,-1.6585,-1.6587,-1.6589,-1.6594,-1.6593,-1.6598,-1.66,-1.6604,-1.6609,-1.6617,-1.6623,-1.663,-1.6645,-1.6646,-1.6651,-1.6653,-1.6655,-1.6656,-1.6664,-1.6666,-1.6641,-1.6641,-1.6641,0,0,-1.6569,-1.6573,-1.6577,-1.6586,-1.659,-1.6598,-1.6591,-1.66,-1.6606,-1.6602,-1.6613,-1.6616,-1.6623,-1.6636,-1.6642,-1.6639,-1.6663,-1.6656,-1.6657,-1.6658,-1.6666,-1.6668,-1.667,-1.6642,-1.6641,-1.6641,0,0,-1.6584,-1.6588,-1.6597,-1.6601,-1.6607,-1.6608,-1.661,-1.6616,-1.6617,-1.6629,-1.6626,-1.6634,-1.6648,-1.6652,-1.6656,-1.6674,-1.6672,-1.6677,-1.6686,-1.6694,-1.6696,-1.6698,-1.6704,-1.6706,-1.6678,-1.6678,-1.6678,0,-1.6591,-1.6603,-1.6602,-1.6611,-1.6616,-1.6613,-1.6622,-1.6626,-1.6635,-1.6638,-1.6634,-1.6651,-1.6655,-1.667,-1.6674,-1.6678,-1.6681,-1.6676,-1.6695,-1.6697,-1.6699,-1.6705,-1.6707,-1.6679,-1.6679,-1.6679,-1.6679,0,-1.6611,-1.6619,-1.6626,-1.6634,-1.6639,-1.6648,-1.665,-1.6656,-1.6655,-1.6657,-1.6669,-1.6674,-1.6682,-1.6686,-1.6686,-1.6701,-1.6699,-1.6695,-1.6688,-1.6702,-1.6708,-1.671,-1.668,-1.6679,-1.6679,-1.6679,0,0,-1.663,-1.6638,-1.664,-1.6644,-1.665,-1.6657,-1.6667,-1.6675,-1.6679,-1.6685,-1.6693,-1.6706,-1.6702,-1.6707,-1.6707,-1.6715,-1.6728,-1.671,-1.671,-1.6713,-1.6746,-1.6748,-1.6751,-1.6727,-1.6728,-1.6728,-1.6745,0,-1.6646,-1.6662,-1.6662,-1.6677,-1.6685,-1.6682,-1.6691,-1.6696,-1.6698,-1.6706,-1.6708,-1.6717,-1.6712,-1.6715,-1.6722,-1.6725,-1.6735,-1.6724,-1.6735,-1.6735,-1.6733,-1.6753,-1.6756,-1.6772,-1.6747,-1.6748,-1.6748,0,-1.6666,-1.6672,-1.6688,-1.6693,-1.6697,-1.6704,-1.6712,-1.6718,-1.6725,-1.6726,-1.6732,-1.6731,-1.6741,-1.6735,-1.6749,-1.6742,-1.6746,-1.6749,-1.6749,-1.675,-1.6742,-1.6754,-1.6777,-1.6779,-1.6752,-1.6751,-1.6751,0,-1.6678,-1.6691,-1.6701,-1.6705,-1.6711,-1.6717,-1.672,-1.6726,-1.6731,-1.6738,-1.6741,-1.6749,-1.6754,-1.6761,-1.6762,-1.6757,-1.6777,-1.677,-1.6779,-1.6778,-1.6782,-1.6782,-1.6805,-1.6786,-1.6786,-1.6786,-1.6786,0,-1.6695,-1.6705,-1.6707,-1.6714,-1.6725,-1.6725,-1.6736,-1.6739,-1.6744,-1.6752,-1.6751,-1.6758,-1.6761,-1.6769,-1.677,-1.6782,-1.6784,-1.6786,-1.6786,-1.6786,-1.6785,-1.6788,-1.6787,-1.6787,-1.6786,-1.6786,-1.6786,0,-1.671,-1.6712,-1.6724,-1.673,-1.6731,-1.6739,-1.6744,-1.6751,-1.6753,-1.6763,-1.6765,-1.6769,-1.6779,-1.6781,-1.6793,-1.6794,-1.6808,-1.6807,-1.6805,-1.6805,-1.6813,-1.6812,-1.6839,-1.6842,-1.6821,-1.6821,-1.6821,0,-1.6721,-1.6728,-1.6735,-1.6739,-1.6743,-1.675,-1.6755,-1.6757,-1.6762,-1.677,-1.6776,-1.6785,-1.6792,-1.6808,-1.6812,-1.682,-1.682,-1.6829,-1.6821,-1.6821,-1.682,-1.6819,-1.682,-1.683,-1.683,-1.683,-1.683,0,-1.674,-1.674,-1.6747,-1.6755,-1.676,-1.6766,-1.6772,-1.6777,-1.6779,-1.6785,-1.6794,-1.68,-1.6811,-1.6821,-1.683,-1.6834,-1.6833,-1.6833,-1.6835,-1.6835,-1.6833,-1.6834,-1.6809,-1.6832,-1.6832,-1.6832,-1.6832,-1.6832,-1.6753,-1.6759,-1.6764,-1.6772,-1.6777,-1.6782,-1.6789,-1.6792,-1.68,-1.6809,-1.6809,-1.6819,-1.6826,-1.6838,-1.6843,-1.6851,-1.6848,-1.6852,-1.6853,-1.6853,-1.6854,-1.6832,-1.6853,-1.6853,-1.6853,-1.6852,-1.6852,0,-1.6771,-1.6774,-1.6782,-1.679,-1.6796,-1.6794,-1.6801,-1.6806,-1.6815,-1.6821,-1.6828,-1.6839,-1.6848,-1.6853,-1.6862,-1.6868,-1.6868,-1.687,-1.687,-1.6871,-1.6856,-1.6853,-1.687,-1.687,-1.687,-1.687,-1.687,-1.687,-1.6781,-1.6792,-1.6793,-1.6807,-1.681,-1.6819,-1.6823,-1.6829,-1.6833,-1.6845,-1.6853,-1.6856,-1.6862,-1.6871,-1.688,-1.6881,-1.6884,-1.6887,-1.6888,-1.6874,-1.6872,-1.687,-1.6867,-1.6888,-1.6888,-1.6903,-1.6903,-1.6903]},{"header":{"parameterUnit":"m.s-1","parameterCategory":1,"la1":30.2991,"la2":30.254,"lo1":-89.0895,"lo2":-89.0444,"dy":0.0017,"dx":0.0017,"nx":28,"ny":28,"refTime":"2025-03-17T03:00:00:Z","depth":0,"parameterNumber":3,"parameterNumberName":"V-component_of_WINDS"},"data":[0,0,0,0,0,0,0,0,0,0,0,0,0,0,0,0,0,0,0,0,0,0,0,0,0,0,0,0,0,0,0,0,0,0,0,0,0,0,0,0,0,0,0,0,0,0,0,0,0,0,0,0,0,0,0,0,0,0,5.8213,5.8214,0,5.8334,5.8336,5.8337,5.8308,5.8306,5.8303,5.8301,5.8419,5.8424,5.843,0,0,0,0,0,0,0,0,0,0,0,0,0,5.795,5.7955,5.8212,5.8214,5.8216,5.8334,5.8336,5.8337,5.8308,5.8306,5.8303,5.83,5.8418,5.8424,5.843,0,0,0,0,0,0,0,0,0,0,0,0,0,5.8067,5.7956,5.8212,5.8216,5.8217,5.8334,5.8336,5.8338,5.8309,5.8305,5.8302,5.8299,5.8415,5.8423,5.8431,5.855,0,0,5.8455,5.8459,0,0,0,0,0,0,0,0,5.806,5.8076,5.8214,5.8216,5.8217,5.8302,5.8286,5.8409,5.831,5.8274,5.8301,5.8297,5.8383,5.8393,5.8423,5.8555,5.856,5.8456,5.8461,5.8464,5.8467,0,0,0,0,0,0,0,5.8052,5.8071,5.826,5.8216,5.8218,5.8209,5.8222,5.8309,5.8346,5.8277,5.8275,5.829,5.8383,5.8416,5.8426,5.8562,5.8456,5.8463,5.8468,5.8471,5.8797,5.8801,0,0,0,0,0,0,5.8043,5.8064,5.8257,5.8264,5.8129,5.8217,5.8231,5.8279,5.8345,5.8352,5.8293,5.8288,5.8404,5.8417,5.843,5.8574,5.8464,5.8472,5.8476,5.8793,5.8798,5.8802,0,0,0,0,0,0,5.8038,5.8061,5.8252,5.8164,5.8188,5.8225,5.8279,5.8283,5.8316,5.8358,5.8363,5.832,5.8402,5.8419,5.8521,5.8577,5.8475,5.8483,5.8789,5.8795,5.88,5.8861,0,0,0,0,0,0,5.803,5.8059,5.8106,5.8165,5.8192,5.8342,5.8282,5.8288,5.833,5.8325,5.8384,5.8391,5.84,5.8509,5.8529,5.8586,5.8489,5.8784,5.8792,5.8798,5.8855,5.8869,5.8881,0,0,0,0,0,5.8021,5.8116,5.8108,5.8131,5.8252,5.8346,5.8361,5.8372,5.8335,5.8381,5.8408,5.8389,5.8568,5.852,5.8542,5.8602,5.878,5.8789,5.8798,5.8849,5.8866,5.888,0,0,0,0,0,0,5.806,5.8124,5.8116,5.8234,5.8285,5.8341,5.8399,5.8389,5.845,5.8443,5.8452,5.8465,5.8569,5.8596,5.8541,5.8721,5.8669,5.8682,5.87,5.8716,5.8729,5.872,5.8495,0,0,0,0,0,5.8083,5.8155,5.8207,5.8306,5.8332,5.8362,5.8403,5.8407,5.8459,5.848,5.8514,5.8564,5.8631,5.8675,5.874,5.8858,5.887,5.8911,5.8924,5.8935,5.8946,5.9011,5.9029,5.8831,5.8831,5.8831,0,0,5.813,5.8174,5.8219,5.8315,5.8355,5.8428,5.838,5.8459,5.8513,5.8491,5.859,5.8617,5.8673,5.8784,5.8834,5.8809,5.9004,5.8946,5.8954,5.896,5.9021,5.904,5.9057,5.8837,5.8836,5.8835,0,0,5.8253,5.8294,5.8381,5.8423,5.8485,5.8504,5.8525,5.8583,5.8601,5.8701,5.8686,5.8749,5.8865,5.8906,5.8942,5.9081,5.9066,5.9102,5.917,5.9233,5.9248,5.9262,5.9312,5.9329,5.9113,5.9113,5.9113,0,5.8303,5.8415,5.8427,5.8509,5.8551,5.8537,5.8625,5.8663,5.8742,5.8771,5.8742,5.8889,5.8925,5.9045,5.908,5.9109,5.9132,5.9095,5.9246,5.926,5.9273,5.932,5.9338,5.9117,5.9117,5.9116,5.9116,0,5.8473,5.8551,5.8613,5.8693,5.8742,5.8826,5.885,5.8898,5.8898,5.892,5.9021,5.9065,5.9138,5.9167,5.9166,5.9287,5.927,5.9244,5.9191,5.9295,5.934,5.9358,5.9123,5.9122,5.912,5.9119,0,0,5.8623,5.871,5.8732,5.8768,5.8836,5.8895,5.8978,5.9052,5.9093,5.9148,5.9217,5.9316,5.9293,5.9333,5.9337,5.9393,5.95,5.936,5.9361,5.9384,5.9635,5.9654,5.9675,5.9491,5.9494,5.9497,5.963,0,5.8752,5.8901,5.8915,5.9047,5.9119,5.9107,5.9179,5.9227,5.925,5.9312,5.9336,5.9407,5.937,5.9395,5.9449,5.9476,5.9551,5.9466,5.9553,5.9556,5.9539,5.9699,5.9719,5.9843,5.9648,5.9651,5.9653,0,5.8922,5.8985,5.9126,5.9184,5.9214,5.9279,5.9348,5.9409,5.9463,5.9475,5.9522,5.9519,5.9602,5.9548,5.9662,5.9605,5.9641,5.9659,5.9664,5.9672,5.9611,5.971,5.9883,5.9901,5.9681,5.9678,5.9676,0,5.9018,5.9137,5.9237,5.9268,5.9338,5.9384,5.9415,5.9466,5.951,5.957,5.9598,5.9665,5.9702,5.9754,5.9769,5.9728,5.9883,5.9829,5.9894,5.9894,5.9927,5.9924,6.0107,5.9951,5.9951,5.9951,5.995,0,5.916,5.9246,5.9281,5.9342,5.9438,5.9452,5.9546,5.9574,5.962,5.9685,5.9678,5.9739,5.9755,5.9819,5.983,5.9923,5.994,5.9951,5.9953,5.9952,5.995,5.9975,5.9967,5.9955,5.9954,5.9953,5.9953,0,5.9282,5.9309,5.9417,5.9476,5.9493,5.9561,5.961,5.9668,5.969,5.9772,5.9792,5.9826,5.9901,5.9921,6.0009,6.0017,6.0126,6.012,6.0109,6.0109,6.0172,6.0166,6.0377,6.0405,6.0231,6.0233,6.0234,0,5.9372,5.9438,5.9505,5.9549,5.9583,5.9654,5.9699,5.9716,5.9763,5.983,5.988,5.9954,6.0014,6.0133,6.0164,6.0231,6.0226,6.0296,6.0236,6.0233,6.0227,6.0223,6.0229,6.0307,6.0309,6.031,6.0311,0,5.9527,5.9537,5.9603,5.9675,5.973,5.9786,5.984,5.9876,5.99,5.9953,6.0031,6.0077,6.0169,6.0242,6.031,6.034,6.0329,6.033,6.0349,6.0347,6.0338,6.0344,6.0139,6.0325,6.0323,6.0322,6.0322,6.0321,5.9635,5.9694,5.975,5.9825,5.9868,5.9919,5.9976,6.0007,6.0072,6.0149,6.0154,6.0238,6.029,6.0381,6.0415,6.0479,6.0458,6.0485,6.0492,6.0498,6.0504,6.0328,6.0492,6.0491,6.0491,6.0491,6.049,0,5.9789,5.9826,5.9894,5.9971,6.003,6.0017,6.0077,6.0126,6.02,6.0251,6.0311,6.0399,6.047,6.0507,6.0578,6.0622,6.0619,6.064,6.0636,6.0643,6.0518,6.0495,6.0641,6.0641,6.0641,6.0641,6.0641,6.0641,5.9877,5.9976,5.9993,6.0112,6.0147,6.0231,6.0266,6.0312,6.0353,6.0453,6.0513,6.0538,6.0582,6.0656,6.072,6.0729,6.0755,6.0778,6.0785,6.0667,6.0652,6.0637,6.0616,6.0784,6.0784,6.0904,6.0905,6.0906]}]]